Weather History for KBNO - May, 2013

Change the Weather History Date:

Monday, May 27, 2013

  Actual Average Record
Temperature  
Mean Temperature 41 °F 54 °F  
Max Temperature 53 °F 69 °F 86 °F (1983)
Min Temperature 29 °F 39 °F 27 °F (1954)
Degree Days  
Heating Degree Days 24 11  
Month to date heating degree days 339 386  
Since 1 July heating degree days 7180 7426  
Cooling Degree Days 0 0  
Month to date cooling degree days 1 0  
Year to date cooling degree days 1 0  
Moisture  
Dew Point 41 °F    
Average Humidity 89    
Maximum Humidity 100    
Minimum Humidity 77    
Precipitation  
Precipitation 0.60 in 0.05 in 0.60 in (2013)
Month to date precipitation 1.05 1.06  
Year to date precipitation 2.36 5.29  
Sea Level Pressure  
Sea Level Pressure 29.94 in    
Wind  
Wind Speed 4 mph (SSW)    
Max Wind Speed 20 mph    
Max Gust Speed 24 mph    
Visibility 7 miles    
Events Rain    
T = Trace of Precipitation, MM = Missing Value Source: NWS Daily Summary

Daily Weather History Graph

Daily Weather History Graph

Search for Another Location

Airport or City:

Trip Planner

Search our weather history database for the weather conditions in past years. The results will help you decide how hot, cold, wet, or windy it might be!

Date:

Astronomy

May. 27, 2013 Rise Set
Actual Time 5:20 AM PDT 8:26 PM PDT
Civil Twilight 4:45 AM PDT 9:01 PM PDT
Nautical Twilight 4:01 AM PDT 9:45 PM PDT
Astronomical Twilight 3:08 AM PDT 10:38 PM PDT
Moon 11:06 PM PDT (5/27) 8:04 AM PDT (5/27)
Length of Visible Light 16h 15m
Length of Day
15h 06m
Waning Gibbous, 90% of the Moon is Illuminated
May 27
Waning Gibbous
May 31
Last Quarter
Jun 8
New
Jun 16
First Quarter
Jun 23
Full

Hourly Weather History & Observations

Time (PDT) Temp. Windchill Dew Point Humidity Pressure Visibility Wind Dir Wind Speed Gust Speed Precip Events Conditions
12:53 AM 36.0 °F 32.1 °F 34.0 °F 93% 30.05 in 10.0 mi West 4.6 mph - N/A   Clear
1:53 AM 34.0 °F 29.8 °F 32.0 °F 92% 30.05 in 10.0 mi NNW 4.6 mph - N/A   Clear
2:53 AM 34.0 °F 28.8 °F 32.0 °F 92% 30.04 in 10.0 mi North 5.8 mph - N/A   Clear
3:53 AM 30.9 °F - 30.0 °F 96% 30.03 in 10.0 mi Calm Calm - N/A   Clear
4:53 AM 30.0 °F - 28.9 °F 96% 30.03 in 10.0 mi Calm Calm - N/A   Clear
5:27 AM 28.4 °F - 26.6 °F 93% 30.02 in 2.5 mi Calm Calm - N/A   Partly Cloudy
5:34 AM 28.4 °F - 28.4 °F 100% 30.01 in 1.2 mi Calm Calm - N/A   Partly Cloudy
5:40 AM 30.2 °F - 28.4 °F 93% 30.01 in 2.0 mi Calm Calm - N/A   Partly Cloudy
5:51 AM 30.2 °F 26.7 °F 28.4 °F 93% 30.01 in 5.0 mi WSW 3.5 mph - N/A   Partly Cloudy
5:53 AM 30.9 °F 27.5 °F 30.0 °F 96% 30.02 in 6.0 mi WSW 3.5 mph - N/A   Partly Cloudy
6:53 AM 36.0 °F - 34.0 °F 93% 30.00 in 10.0 mi Calm Calm - N/A   Overcast
7:53 AM 42.1 °F - 39.0 °F 89% 29.99 in 10.0 mi Calm Calm - N/A   Overcast
8:53 AM 44.1 °F 42.5 °F 39.9 °F 85% 29.99 in 10.0 mi SE 3.5 mph - 0.00 in Rain Light Rain
9:53 AM 46.0 °F 43.9 °F 41.0 °F 83% 29.97 in 6.0 mi SSE 4.6 mph - 0.01 in Rain Light Rain
10:53 AM 46.9 °F - 44.1 °F 90% 29.97 in 9.0 mi SE 4.6 mph - 0.05 in Rain Light Rain
11:28 AM 48.2 °F - 46.4 °F 93% 29.95 in 6.0 mi Variable 4.6 mph - 0.02 in Rain Rain
11:53 AM 50.0 °F - 46.9 °F 89% 29.94 in 7.0 mi SSE 10.4 mph - 0.05 in Rain Light Rain
12:07 PM 50.0 °F - 46.4 °F 87% 29.93 in 6.0 mi SSE 10.4 mph - 0.01 in Rain Light Rain
12:53 PM 50.0 °F - 46.0 °F 86% 29.93 in 6.0 mi South 16.1 mph - 0.04 in Rain Rain
1:02 PM 50.0 °F - 46.4 °F 87% 29.92 in 4.0 mi South 11.5 mph - 0.01 in Rain Rain
1:46 PM 48.2 °F - 46.4 °F 93% 29.92 in 6.0 mi SW 8.1 mph - 0.04 in Rain Light Rain
1:53 PM 50.0 °F - 46.9 °F 89% 29.93 in 6.0 mi SW 10.4 mph - 0.05 in Rain Light Rain
2:11 PM 50.0 °F - 46.4 °F 87% 29.92 in 6.0 mi SW 9.2 mph - 0.02 in Rain Light Rain
2:53 PM 50.0 °F - 46.9 °F 89% 29.92 in 10.0 mi SSW 10.4 mph - 0.05 in Rain Light Rain
3:53 PM 51.1 °F - 45.0 °F 80% 29.92 in 10.0 mi SSW 5.8 mph - 0.01 in Rain Light Rain
4:40 PM 51.8 °F - 46.4 °F 82% 29.89 in 10.0 mi Calm Calm - 0.00 in   Overcast
4:53 PM 53.1 °F - 46.0 °F 77% 29.89 in 10.0 mi Calm Calm - 0.00 in   Overcast
5:20 PM 51.8 °F - 46.4 °F 82% 29.87 in 8.0 mi Calm Calm - 0.01 in Rain Light Rain
5:53 PM 51.1 °F - 48.0 °F 89% 29.88 in 4.0 mi Calm Calm - 0.03 in Rain Light Rain
6:53 PM 52.0 °F - 46.0 °F 80% 29.85 in 10.0 mi SE 3.5 mph - 0.01 in   Overcast
7:53 PM 48.9 °F - 46.0 °F 90% 29.84 in 10.0 mi Calm Calm - 0.03 in Rain Light Rain
8:43 PM 46.4 °F 40.1 °F 44.6 °F 93% 29.88 in 2.5 mi WSW 15.0 mph 24.2 mph 0.05 in Rain Heavy Rain
8:45 PM 46.4 °F 40.1 °F 42.8 °F 87% 29.88 in 3.0 mi West 15.0 mph 24.2 mph 0.06 in Rain Heavy Rain
8:53 PM 46.0 °F 41.9 °F 43.0 °F 89% 29.87 in 4.0 mi WNW 8.1 mph - 0.09 in Rain Rain
9:53 PM 46.0 °F - 44.1 °F 93% 29.87 in 7.0 mi Calm Calm - 0.05 in Rain Light Rain
10:32 PM 44.6 °F 43.1 °F 42.8 °F 93% 29.89 in 7.0 mi SSW 3.5 mph - 0.05 in Rain Light Rain
10:53 PM 45.0 °F - 44.1 °F 97% 29.88 in 7.0 mi Calm Calm - 0.08 in Rain Light Rain
11:03 PM 44.6 °F 43.1 °F 42.8 °F 93% 29.88 in 9.0 mi SSE 3.5 mph - 0.00 in Rain Light Rain
11:53 PM 45.0 °F - 43.0 °F 93% 29.85 in 9.0 mi Calm Calm - 0.03 in Rain Light Rain